[[{"header":{"parameterUnit":"m.s-1","parameterCategory":1,"la1":30.2992,"la2":30.254,"lo1":-89.0895,"lo2":-89.0443,"dy":0.0025,"dx":0.0025,"nx":19,"ny":19,"refTime":"2026-03-20T09:00:00:Z","depth":0,"parameterNumber":2,"parameterNumberName":"U-component_of_WINDS"},"data":[0,0,0,4.3717,4.3722,4.3979,4.398,4.4312,4.4315,0,0,0,0,0,0,0,0,0,0,0,4.3644,4.3646,4.3716,4.3723,4.3979,4.398,4.4312,4.4315,0,0,0,0,0,0,0,0,0,0,0,4.3643,4.3646,4.3649,4.3724,4.3979,4.398,4.4311,4.4116,0,0,0,0,0,0,0,0,0,0,4.3866,4.3802,4.3645,4.3649,4.3725,4.3979,4.398,4.4107,4.4128,4.4198,0,4.4261,0,4.4293,4.4338,4.4339,0,0,0,4.3721,4.3784,4.385,4.3649,4.3728,4.3978,4.3863,4.4119,4.4143,4.4226,4.4266,4.4278,4.4299,4.434,4.4342,4.4746,4.4748,0,0,4.3707,4.3692,4.3833,4.3866,4.3827,4.3855,4.3871,4.4133,4.4175,4.4267,4.4285,4.4304,4.4342,4.4345,4.4745,4.4747,0,0,0,4.3667,4.3682,4.3742,4.3853,4.3898,4.3862,4.3881,4.4163,4.4184,4.4289,4.4308,4.4344,4.4348,4.4742,4.4745,4.4825,0,0,0,4.3659,4.3659,4.3736,4.3729,4.3894,4.4034,4.3905,4.4166,4.4196,4.4306,4.4344,4.4351,4.474,4.4744,4.4819,4.4866,0,0,0,4.3626,4.3655,4.3693,4.3728,4.3838,4.403,4.4066,4.4173,4.4208,4.4339,4.4352,4.4739,4.4743,4.4813,4.4856,4.4964,0,0,0,4.3587,4.3765,4.3694,4.3899,4.3835,4.4079,4.4064,4.4247,4.437,4.4346,4.4741,4.4745,4.4811,4.485,4.4957,4.505,4.5088,0,0,4.3802,4.379,4.3912,4.3856,4.4107,4.4041,4.4304,4.4432,4.446,4.4649,4.4659,4.4821,4.4855,4.4963,4.5313,4.5343,0,0,0,4.3974,4.4061,4.4131,4.4246,4.4346,4.4434,4.4523,4.4569,4.473,4.4554,4.4892,4.4913,4.4976,4.5021,4.5047,4.51,4.4766,4.4766,4.4765,4.4257,4.4279,4.448,4.4533,4.4645,4.4732,4.4823,4.4901,4.4895,4.4974,4.5029,4.5239,4.5291,4.531,4.5366,4.5083,4.5083,4.5084,4.5084,4.457,4.4695,4.4678,4.4866,4.4889,4.5048,4.5138,4.5127,4.5277,4.52,4.5258,4.5168,4.5343,4.5392,4.509,4.5089,4.5088,4.5088,4.5087,4.4755,4.4818,4.487,4.5035,4.5159,4.5207,4.535,4.5368,4.5385,4.5442,4.5499,4.5498,4.5495,4.5468,4.5469,4.547,4.5471,4.5471,4.5472,4.4924,4.498,4.5098,4.5217,4.529,4.5388,4.5475,4.5548,4.5633,4.5633,4.5634,4.5616,4.5357,4.5288,4.5483,4.5481,4.5479,4.5478,4.5478,4.5228,4.5161,4.5343,4.5416,4.5554,4.5673,4.5693,4.5838,4.5901,4.597,4.594,4.5747,4.5735,4.5715,4.5659,4.5937,4.5937,4.5937,4.5937,4.538,4.5376,4.5563,4.5678,4.5793,4.5827,4.6029,4.6098,4.6158,4.6197,4.616,4.6088,4.6067,4.6068,4.604,4.5987,4.6343,4.6344,4.6344,4.5566,4.5573,4.5742,4.5798,4.5906,4.5998,4.6187,4.6318,4.6374,4.6361,4.6227,4.621,4.6094,4.6056,4.6038,4.5994,4.5898,0,0]},{"header":{"parameterUnit":"m.s-1","parameterCategory":1,"la1":30.2992,"la2":30.254,"lo1":-89.0895,"lo2":-89.0443,"dy":0.0025,"dx":0.0025,"nx":19,"ny":19,"refTime":"2026-03-20T09:00:00:Z","depth":0,"parameterNumber":3,"parameterNumberName":"V-component_of_WINDS"},"data":[0,0,0,2.5343,2.5346,2.549,2.5491,2.5672,2.5674,0,0,0,0,0,0,0,0,0,0,0,2.5301,2.5302,2.5343,2.5347,2.549,2.5491,2.5672,2.5674,0,0,0,0,0,0,0,0,0,0,0,2.53,2.5302,2.5303,2.5347,2.549,2.5491,2.5671,2.5563,0,0,0,0,0,0,0,0,0,0,2.5424,2.5386,2.5302,2.5303,2.5348,2.549,2.5491,2.5558,2.557,2.5606,0,2.564,0,2.566,2.5686,2.5686,0,0,0,2.5346,2.5376,2.5414,2.5304,2.5349,2.549,2.5425,2.5565,2.5578,2.5622,2.5643,2.5649,2.5663,2.5687,2.5688,2.5899,2.59,0,0,2.5338,2.5327,2.5405,2.5423,2.5403,2.5421,2.543,2.5573,2.5594,2.5643,2.5654,2.5666,2.5688,2.569,2.5898,2.59,0,0,0,2.5316,2.5321,2.5356,2.5416,2.5442,2.5425,2.5435,2.5588,2.56,2.5655,2.5668,2.5689,2.5691,2.5897,2.5899,2.5937,0,0,0,2.5311,2.5308,2.5353,2.5347,2.5439,2.5517,2.5447,2.559,2.5607,2.5667,2.5689,2.5693,2.5896,2.5898,2.5934,2.5957,0,0,0,2.5291,2.5306,2.5327,2.5346,2.5408,2.5515,2.5536,2.5594,2.5614,2.5687,2.5694,2.5896,2.5898,2.5931,2.5952,2.6009,0,0,0,2.5267,2.5359,2.5327,2.5434,2.5406,2.5538,2.5535,2.5633,2.57,2.569,2.5896,2.5899,2.593,2.5949,2.6005,2.6054,2.6073,0,0,2.5377,2.5372,2.5436,2.5411,2.5546,2.5517,2.5656,2.5728,2.5745,2.5846,2.5852,2.5935,2.5952,2.6008,2.6186,2.6201,0,0,0,2.5467,2.5513,2.5551,2.5613,2.567,2.572,2.5772,2.5798,2.5885,2.5795,2.5971,2.5982,2.6015,2.6039,2.6052,2.608,2.5909,2.5909,2.5909,2.5606,2.5622,2.5729,2.5762,2.5823,2.5874,2.5924,2.5968,2.5967,2.6008,2.6039,2.6145,2.6172,2.6182,2.6212,2.6066,2.6066,2.6066,2.6066,2.5768,2.5835,2.583,2.5932,2.5948,2.6033,2.6085,2.6081,2.6162,2.6124,2.6154,2.6111,2.6198,2.6225,2.6069,2.6069,2.6068,2.6068,2.6068,2.586,2.5895,2.5925,2.6016,2.6084,2.6114,2.6191,2.6203,2.6215,2.6245,2.6277,2.6277,2.6277,2.6259,2.626,2.626,2.626,2.6261,2.6261,2.5945,2.5977,2.6042,2.6108,2.6149,2.6204,2.6254,2.6294,2.6341,2.6344,2.6344,2.6338,2.6204,2.617,2.6267,2.6266,2.6265,2.6264,2.6264,2.6102,2.6068,2.6167,2.6208,2.6286,2.6351,2.6365,2.6445,2.648,2.6517,2.6504,2.6403,2.6399,2.6389,2.636,2.6501,2.6501,2.6501,2.6501,2.618,2.6179,2.6282,2.6346,2.641,2.6432,2.6541,2.658,2.6615,2.6637,2.6618,2.6581,2.657,2.6573,2.6558,2.6532,2.6713,2.6714,2.6714,2.6278,2.6283,2.6375,2.6409,2.647,2.6521,2.6624,2.6696,2.6728,2.6723,2.6654,2.6645,2.6586,2.6566,2.656,2.6537,2.6489,0,0]}]]